Temp
14 14 13 13 13 13 13 12 12 11 11 11 11 10 10 10 10 10 10 11 11 11 11 11 12 12 12 12 12 12 12 12 11 11 11 11 11 11 11 11 11 11 11 11 12 12 12 12 12 12 12 12 12 13 13 13 13 13 13 13 13 13 13
14 14 14 13 13 13 13 12 12 12 12 11 11 10 10 10 10 10 10 10 10 10 10 11 11 11 11 11 11 11 11 11 11 11 11 11 11 11 11 11 11 11 11 11 12 12 12 12 12 12 12 12 12 13 13 13 13 12 12 12 12 13 13
14 14 14 13 13 13 13 12 12 12 12 12 11 10 10 10 10 10 10 10 10 10 10 11 11 11 11 11 11 11 11 11 11 11 11 11 11 11 11 11 11 11 11 11 12 12 12 12 12 12 12 12 12 13 13 13 12 12 12 12 12 12 12
14 14 14 13 13 13 12 12 12 12 12 12 11 11 10 10 10 10 10 11 11 11 11 11 11 11 11 11 11 11 11 10 11 11 10 10 10 11 11 11 11 11 11 11 11 12 12 12 12 12 12 12 12 12 12 12 12 12 12 12 12 12 12
14 14 14 14 13 13 13 12 12 12 12 12 12 11 11 10 11 11 11 11 11 11 11 11 11 11 11 11 11 11 11 11 11 11 11 10 10 10 10 10 10 11 11 11 11 11 11 11 11 11 12 12 12 12 12 12 12 12 13 13 13 12 12
14 14 14 14 13 13 13 13 13 12 12 12 12 12 12 11 11 11 11 11 11 11 11 11 11 11 11 11 11 11 11 11 11 11 11 11 11 11 10 10 10 10 11 11 11 11 11 11 11 11 11 12 12 12 12 11 11 12 12 13 13 13 12
13 13 14 14 13 13 13 13 13 13 13 12 12 12 12 12 12 12 11 11 12 11 11 11 11 11 11 11 11 11 11 11 11 11 11 11 11 11 11 11 11 11 11 11 11 11 12 12 11 11 11 12 12 12 12 11 11 12 12 12 12 12 12
13 13 14 14 13 13 13 13 13 13 13 13 12 12 12 12 12 12 12 12 12 12 11 11 11 11 11 11 11 11 11 11 11 11 11 11 11 11 11 11 11 11 12 12 12 12 12 12 12 12 12 12 11 11 11 11 11 12 11 11 11 11 11
12 13 13 13 13 13 13 13 13 13 13 13 13 12 12 12 12 12 12 12 12 12 12 11 11 11 11 11 11 11 11 11 11 11 11 11 11 11 11 11 11 11 11 11 12 12 12 12 12 12 12 12 12 12 11 11 11 11 11 11 11 11 11
12 12 13 13 13 13 13 13 12 12 13 13 13 13 12 12 12 12 12 12 12 12 12 12 11 11 11 11 11 11 11 11 11 11 11 11 11 11 11 11 11 11 11 11 11 11 11 11 11 11 12 12 12 12 12 11 11 12 11 11 11 11 11
12 12 12 13 13 13 12 12 12 12 12 12 12 12 12 12 12 12 12 12 12 12 12 12 12 12 12 11 11 11 11 11 11 11 11 11 11 11 11 11 11 11 11 11 11 11 11 11 11 11 11 11 12 12 12 12 11 12 12 12 12 12 11
12 12 12 12 12 12 12 12 12 12 12 12 12 12 12 12 12 12 12 12 12 12 12 12 12 12 12 12 12 12 12 11 11 11 11 11 11 11 11 11 11 11 11 11 11 11 11 11 11 11 11 11 11 11 12 12 11 11 11 12 12 12 12
13 12 12 12 12 12 12 12 12 12 12 12 12 12 12 12 12 12 12 12 12 12 12 12 12 12 12 12 12 12 12 12 11 11 11 11 11 11 11 11 11 11 11 11 11 11 11 11 11 11 11 11 11 11 11 11 12 11 11 11 11 11 11
12 12 12 12 12 12 12 12 12 12 12 12 12 12 12 12 12 12 12 12 12 12 12 12 12 12 12 12 12 12 12 12 11 11 11 11 11 11 11 10 10 10 10 10 10 10 10 11 11 11 10 10 10 10 11 11 11 11 11 11 11 11 11
12 12 11 12 12 12 12 12 12 12 12 12 11 11 11 11 12 12 12 12 12 12 12 12 12 12 12 12 12 12 12 12 11 11 11 11 11 11 11 10 10 10 10 10 10 10 10 10 10 10 10 10 10 10 10 10 10 11 11 11 11 11 11
12 12 12 12 12 12 12 12 12 12 12 12 12 11 11 11 12 12 12 12 12 12 12 12 12 12 12 12 12 11 11 11 11 11 11 11 11 10 10 10 10 10 10 10 10 10 10 10 10 10 10 10 10 9 9 10 10 10 10 11 11 11 11
11 12 12 12 12 12 12 12 12 12 12 12 12 12 12 12 12 12 12 12 12 12 12 12 12 12 12 11 11 11 11 11 11 11 11 11 10 10 10 10 10 10 10 10 9 9 9 9 9 9 9 9 9 9 9 9 9 9 9 10 10 10 10
11 11 11 11 11 11 11 11 11 11 11 12 12 11 12 12 12 12 12 12 11 11 11 11 11 11 11 11 11 10 10 10 10 10 10 10 10 10 10 10 10 10 10 10 10 9 9 9 9 9 9 9 9 9 9 9 9 9 9 9 9 9 9
11 11 11 10 10 10 10 11 11 11 11 11 11 11 11 11 11 11 11 11 10 10 11 11 11 11 11 10 10 10 10 10 10 10 10 10 10 10 10 10 10 10 9 9 9 9 9 9 9 9 9 8 8 8 8 9 9 9 9 9 9 9 9
11 11 11 10 10 10 10 10 11 11 11 11 11 11 11 11 11 11 10 10 10 10 10 10 10 10 10 10 10 10 10 10 10 10 9 9 10 10 10 10 10 10 9 9 9 9 9 9 9 8 8 8 8 8 8 8 8 8 8 8 8 8 9
11 11 10 10 10 10 10 11 11 11 11 11 11 11 11 11 10 10 10 10 10 10 10 10 10 10 10 10 10 10 10 10 10 10 9 9 9 9 9 9 9 9 9 9 9 9 9 8 8 8 8 8 8 8 8 8 8 8 8 8 8 8 8
11 11 10 11 10 10 10 11 11 11 11 11 11 11 11 11 11 10 10 10 10 10 10 10 10 10 9 9 9 9 9 9 9 9 9 9 9 9 9 9 9 9 9 9 8 8 9 8 8 8 8 8 7 7 7 7 7 7 7 7 7 7 7
11 11 11 11 11 11 11 11 11 11 11 11 11 11 11 11 11 10 10 10 10 10 10 10 10 10 10 9 9 9 9 9 9 9 9 9 9 9 9 9 9 9 9 8 8 8 8 8 8 8 7 7 7 7 7 7 7 6 6 7 7 7 7
11 11 11 11 11 11 11 11 10 10 10 10 10 10 10 10 10 10 10 10 10 10 10 10 10 10 9 9 9 9 9 9 9 9 9 9 8 8 9 9 9 9 8 8 8 8 8 8 7 7 7 7 7 7 7 7 6 6 5 6 6 6 6
10 10 10 10 10 10 10 10 10 10 10 10 10 10 10 10 10 10 10 10 10 10 10 10 10 10 9 9 9 9 9 9 9 9 9 9 8 8 8 8 8 8 8 8 8 7 7 7 7 7 7 7 7 7 7 6 6 5 5 5 5 6 5
10 10 10 10 10 10 10 10 10 10 10 10 10 10 10 10 10 10 10 9 9 9 10 10 10 10 10 9 9 9 9 9 9 9 8 8 8 8 8 8 8 8 7 7 7 7 7 7 7 7 6 6 6 6 6 6 6 5 4 4 5 5 5
10 10 10 10 10 10 10 10 10 10 10 10 10 10 9 9 9 9 9 9 9 9 9 9 10 9 9 9 9 9 9 9 9 8 8 8 8 8 8 8 7 7 7 7 6 6 6 6 6 6 6 6 6 6 6 6 5 4 3 3 4 4 4
10 10 10 10 10 10 10 10 10 10 10 10 10 9 9 9 9 9 9 9 9 9 9 9 9 9 9 9 9 9 8 8 8 8 8 8 8 8 7 7 7 7 6 6 6 6 5 5 6 6 6 6 5 5 5 4 4 3 3 3 3 3 3
9 9 9 9 9 9 10 10 10 10 10 10 10 10 9 9 9 9 9 9 9 8 9 9 9 9 9 9 9 9 9 9 8 8 8 8 7 7 7 7 6 6 6 6 5 5 5 5 5 5 5 5 5 5 4 3 3 2 2 2 2 2 2
9 9 9 9 9 9 9 9 9 9 10 10 10 10 10 9 9 9 8 8 8 8 8 8 8 9 9 9 9 9 8 8 8 7 7 7 7 7 6 6 6 6 5 5 5 5 5 5 5 5 5 4 4 4 3 3 2 2 2 2 2 1 1
9 9 9 9 9 9 9 9 9 9 9 9 9 9 9 9 9 9 8 8 8 8 8 8 8 8 8 8 8 8 8 7 7 7 7 7 6 6 6 6 5 5 5 5 5 5 5 4 4 4 4 4 3 3 2 2 2 2 2 1 1 1 1
9 9 9 9 9 9 9 8 8 8 8 8 8 9 9 9 9 9 8 8 8 8 8 8 8 8 8 8 7 7 7 6 6 6 6 6 6 6 6 5 5 5 5 5 5 5 4 4 4 4 3 3 2 2 2 2 2 1 1 1 1 1 1
8 8 8 8 8 8 8 8 8 8 8 8 8 8 8 8 9 9 8 8 8 8 8 8 8 8 7 7 7 7 6 6 6 6 6 6 6 6 5 5 5 5 5 5 5 4 4 4 4 3 3 3 2 2 2 2 1 1 1 1 1 1 0
8 8 8 8 8 8 8 8 8 8 8 8 7 7 7 8 8 8 8 8 7 7 7 7 7 7 7 7 7 6 6 6 6 5 5 5 5 5 5 5 5 4 4 4 4 4 4 4 3 3 3 3 2 2 2 2 1 1 1 1 0 -0 -1
8 8 8 8 8 8 8 8 7 7 7 7 7 7 7 7 7 7 7 7 7 7 7 7 7 7 7 6 6 6 5 5 5 5 5 5 5 5 4 4 4 4 4 4 4 3 3 3 3 3 3 2 2 1 1 1 1 1 0 -0 -1 -1 -2
7 7 7 7 7 7 7 7 7 7 7 7 7 7 7 7 7 7 6 6 6 6 6 6 6 6 6 6 5 5 5 5 4 4 4 4 4 4 4 4 4 4 3 3 3 3 3 3 3 2 2 1 1 1 0 0 -0 -1 -1 -2 -2 -3 -3
7 7 7 7 7 7 7 7 7 7 7 7 7 7 6 6 6 6 6 5 5 6 6 6 5 5 5 5 5 5 4 4 4 4 4 4 3 3 3 3 3 3 3 3 3 3 3 2 2 1 1 1 0 -0 -1 -1 -2 -2 -3 -3 -3 -4 -4
Height
1534 1534 1534 1535 1535 1535 1536 1536 1536 1537 1537 1538 1538 1537 1536 1536 1536 1535 1534 1534 1534 1534 1534 1534 1535 1535 1535 1535 1535 1535 1536 1536 1536 1537 1538 1538 1539 1539 1540 1541 1542 1542 1543 1543 1542 1543 1543 1544 1544 1544 1544 1544 1544 1544 1544 1544 1545 1546 1546 1547 1547 1547 1547
1534 1534 1534 1535 1536 1536 1536 1536 1536 1537 1537 1538 1538 1538 1538 1537 1537 1536 1536 1535 1535 1535 1535 1535 1535 1535 1536 1536 1536 1536 1536 1536 1536 1537 1537 1538 1538 1539 1540 1541 1542 1542 1543 1543 1543 1543 1543 1544 1544 1544 1543 1544 1544 1544 1544 1544 1544 1545 1546 1546 1546 1547 1547
1534 1534 1534 1535 1536 1536 1536 1536 1536 1537 1537 1538 1539 1539 1539 1538 1538 1538 1537 1537 1536 1536 1536 1536 1536 1536 1536 1536 1536 1536 1537 1537 1537 1537 1538 1538 1539 1539 1540 1541 1542 1542 1543 1543 1543 1543 1543 1543 1543 1543 1543 1543 1544 1544 1544 1544 1544 1544 1545 1545 1545 1545 1545
1535 1534 1534 1534 1535 1536 1536 1536 1536 1537 1537 1538 1539 1539 1539 1539 1539 1539 1538 1538 1537 1537 1537 1537 1537 1537 1537 1537 1537 1537 1538 1538 1539 1539 1539 1539 1540 1540 1541 1541 1542 1542 1542 1543 1543 1543 1543 1543 1543 1542 1543 1543 1544 1544 1544 1543 1543 1543 1543 1543 1542 1543 1544
1535 1535 1534 1535 1535 1536 1536 1536 1536 1537 1538 1539 1539 1539 1539 1539 1539 1539 1539 1538 1538 1538 1538 1538 1538 1539 1539 1539 1538 1538 1539 1539 1540 1540 1540 1540 1541 1541 1542 1542 1542 1542 1543 1543 1543 1543 1543 1543 1542 1542 1543 1543 1544 1544 1544 1543 1542 1542 1541 1541 1541 1541 1542
1537 1537 1536 1535 1535 1535 1536 1536 1536 1537 1538 1539 1540 1540 1540 1540 1540 1540 1540 1540 1539 1539 1539 1539 1540 1540 1540 1540 1540 1540 1540 1540 1540 1540 1541 1541 1541 1542 1542 1542 1543 1543 1543 1543 1543 1542 1542 1542 1542 1542 1543 1543 1543 1544 1544 1543 1542 1542 1541 1541 1540 1541 1541
1537 1538 1537 1537 1536 1536 1537 1537 1537 1538 1538 1540 1541 1541 1541 1541 1541 1540 1540 1541 1540 1541 1541 1541 1541 1541 1541 1541 1541 1541 1541 1541 1541 1541 1541 1541 1541 1542 1542 1542 1542 1543 1543 1543 1543 1542 1542 1542 1542 1542 1542 1542 1543 1543 1544 1543 1543 1542 1541 1541 1540 1540 1541
1536 1538 1538 1538 1537 1537 1537 1538 1538 1539 1539 1540 1541 1541 1541 1541 1541 1541 1541 1541 1541 1541 1542 1542 1542 1542 1542 1542 1542 1542 1542 1542 1542 1541 1542 1542 1542 1542 1542 1542 1543 1543 1543 1543 1543 1543 1543 1542 1542 1542 1542 1542 1542 1543 1543 1543 1543 1542 1542 1542 1541 1541 1541
1534 1536 1537 1538 1538 1538 1538 1538 1539 1540 1540 1541 1541 1541 1541 1542 1542 1542 1541 1541 1541 1542 1542 1542 1542 1542 1542 1543 1542 1542 1542 1542 1542 1542 1542 1542 1543 1543 1543 1543 1543 1543 1543 1543 1544 1544 1543 1543 1543 1543 1542 1542 1542 1542 1543 1543 1543 1543 1542 1542 1542 1542 1541
1532 1534 1535 1536 1537 1537 1538 1539 1540 1541 1541 1541 1541 1541 1542 1542 1542 1542 1542 1542 1542 1542 1542 1542 1543 1543 1543 1543 1543 1543 1543 1543 1543 1543 1543 1543 1543 1543 1543 1544 1544 1544 1544 1544 1544 1544 1544 1544 1543 1543 1543 1542 1542 1542 1542 1543 1543 1543 1543 1543 1543 1542 1542
1532 1533 1534 1535 1536 1536 1537 1539 1541 1541 1542 1542 1542 1542 1542 1542 1542 1542 1542 1542 1542 1542 1542 1542 1543 1543 1543 1544 1544 1544 1544 1544 1544 1544 1544 1544 1544 1544 1544 1544 1544 1544 1544 1544 1544 1544 1544 1544 1543 1543 1543 1542 1542 1542 1542 1542 1543 1543 1543 1543 1543 1543 1543
1530 1531 1533 1534 1535 1536 1537 1538 1540 1541 1542 1542 1542 1542 1542 1542 1542 1542 1542 1542 1542 1542 1542 1542 1542 1543 1543 1544 1544 1544 1544 1544 1544 1544 1544 1545 1545 1545 1545 1545 1545 1545 1545 1545 1545 1545 1544 1544 1543 1543 1543 1542 1542 1542 1542 1542 1542 1542 1542 1542 1542 1542 1542
1529 1530 1531 1533 1534 1535 1536 1537 1539 1540 1541 1542 1542 1541 1542 1542 1542 1541 1541 1541 1541 1541 1542 1542 1542 1542 1543 1543 1544 1544 1544 1544 1545 1545 1545 1545 1545 1545 1545 1545 1546 1545 1545 1545 1545 1545 1544 1544 1544 1543 1543 1542 1542 1542 1542 1542 1542 1542 1542 1542 1542 1542 1541
1527 1528 1529 1531 1532 1533 1535 1536 1537 1539 1540 1541 1541 1541 1541 1541 1541 1541 1540 1540 1540 1540 1540 1541 1541 1541 1542 1542 1543 1543 1544 1544 1544 1545 1545 1545 1545 1545 1545 1546 1546 1546 1545 1545 1545 1545 1545 1544 1544 1544 1543 1543 1543 1542 1542 1542 1542 1542 1542 1541 1541 1541 1540
1527 1527 1528 1529 1531 1532 1533 1534 1535 1537 1538 1538 1539 1539 1539 1539 1539 1539 1539 1540 1540 1539 1539 1540 1540 1540 1540 1541 1541 1541 1542 1543 1543 1544 1544 1545 1545 1545 1545 1545 1546 1546 1546 1546 1545 1545 1545 1545 1544 1544 1544 1543 1543 1543 1542 1542 1542 1541 1541 1541 1540 1540 1539
1527 1528 1528 1529 1530 1531 1531 1532 1533 1534 1534 1535 1536 1537 1537 1537 1537 1537 1537 1538 1538 1539 1539 1539 1539 1539 1539 1539 1539 1540 1540 1541 1541 1542 1543 1543 1544 1544 1544 1544 1545 1545 1546 1546 1545 1545 1545 1545 1544 1544 1544 1543 1543 1543 1542 1542 1541 1541 1540 1540 1539 1538 1537
1527 1528 1528 1530 1530 1530 1530 1530 1530 1531 1532 1533 1533 1534 1534 1535 1535 1536 1536 1535 1536 1537 1538 1538 1538 1538 1538 1538 1538 1538 1539 1539 1540 1540 1541 1542 1542 1542 1543 1543 1543 1544 1545 1545 1545 1545 1545 1545 1544 1544 1544 1543 1543 1543 1542 1542 1541 1540 1539 1539 1538 1538 1536
1526 1526 1527 1529 1530 1529 1528 1527 1528 1529 1530 1530 1531 1532 1532 1533 1533 1534 1534 1534 1535 1535 1535 1536 1536 1536 1537 1537 1537 1537 1537 1538 1539 1539 1540 1540 1541 1541 1542 1542 1542 1543 1543 1544 1544 1544 1544 1544 1544 1543 1543 1543 1542 1542 1542 1541 1540 1540 1539 1538 1537 1537 1536
1523 1524 1525 1527 1529 1528 1527 1526 1526 1527 1529 1529 1530 1531 1532 1532 1532 1532 1532 1533 1533 1533 1533 1533 1534 1534 1535 1535 1535 1536 1536 1536 1537 1538 1538 1539 1539 1540 1540 1540 1541 1541 1542 1542 1542 1542 1542 1542 1542 1542 1542 1541 1541 1541 1540 1540 1539 1539 1538 1537 1536 1535 1534
1521 1522 1524 1526 1528 1528 1527 1525 1525 1526 1528 1528 1529 1530 1530 1531 1531 1530 1530 1531 1531 1531 1531 1531 1532 1532 1533 1533 1533 1534 1534 1534 1535 1535 1536 1537 1538 1538 1539 1539 1539 1540 1540 1540 1540 1541 1541 1541 1541 1541 1540 1540 1540 1539 1539 1538 1538 1537 1536 1536 1535 1534 1533
1519 1520 1521 1523 1525 1525 1524 1524 1524 1525 1526 1527 1527 1528 1529 1529 1529 1529 1529 1529 1530 1530 1530 1530 1530 1530 1530 1531 1531 1532 1532 1532 1533 1533 1534 1535 1536 1537 1537 1538 1538 1538 1539 1539 1539 1539 1539 1539 1539 1539 1539 1538 1538 1538 1537 1537 1536 1535 1535 1534 1533 1532 1531
1518 1519 1520 1521 1522 1522 1522 1522 1523 1523 1524 1524 1525 1526 1526 1527 1527 1527 1527 1527 1528 1528 1528 1528 1528 1528 1528 1529 1529 1529 1530 1531 1531 1531 1532 1532 1533 1534 1535 1536 1536 1537 1537 1537 1537 1538 1538 1538 1538 1538 1537 1537 1537 1536 1536 1535 1534 1533 1533 1532 1531 1530 1529
1516 1517 1518 1518 1519 1519 1519 1520 1521 1521 1522 1522 1523 1523 1524 1524 1524 1525 1525 1525 1525 1525 1526 1526 1527 1526 1527 1527 1527 1527 1528 1528 1529 1529 1529 1530 1530 1531 1532 1534 1534 1535 1535 1536 1536 1536 1536 1537 1536 1536 1536 1536 1535 1535 1534 1533 1532 1531 1531 1530 1529 1528 1526
1515 1516 1517 1517 1518 1518 1518 1519 1519 1520 1520 1521 1521 1521 1522 1522 1523 1523 1523 1523 1523 1523 1524 1524 1525 1525 1525 1525 1525 1525 1525 1526 1526 1526 1527 1528 1528 1529 1530 1531 1532 1532 1533 1534 1534 1535 1535 1535 1535 1535 1535 1534 1534 1533 1533 1532 1531 1529 1528 1527 1527 1525 1524
1515 1516 1516 1516 1517 1517 1517 1518 1518 1519 1519 1519 1519 1520 1520 1521 1521 1521 1522 1522 1522 1522 1522 1522 1523 1523 1523 1523 1523 1523 1523 1523 1523 1524 1525 1525 1526 1527 1527 1528 1529 1530 1531 1531 1532 1532 1533 1533 1533 1533 1533 1532 1532 1531 1531 1530 1529 1527 1526 1525 1524 1523 1521
1514 1515 1515 1516 1516 1516 1517 1517 1517 1518 1518 1518 1518 1518 1519 1519 1519 1520 1520 1520 1520 1520 1521 1521 1521 1521 1521 1521 1521 1521 1520 1521 1521 1521 1522 1523 1524 1524 1525 1525 1526 1527 1528 1529 1529 1530 1531 1531 1531 1531 1531 1530 1530 1529 1529 1528 1526 1525 1523 1522 1521 1521 1520
1514 1514 1514 1515 1515 1516 1516 1516 1517 1517 1517 1517 1517 1517 1518 1518 1518 1518 1519 1519 1519 1519 1519 1519 1519 1519 1519 1519 1518 1518 1518 1518 1518 1519 1520 1521 1521 1522 1523 1523 1524 1526 1527 1527 1527 1528 1528 1528 1529 1529 1529 1528 1528 1527 1526 1525 1524 1522 1521 1520 1519 1518 1518
1513 1513 1514 1514 1515 1515 1515 1515 1516 1516 1516 1516 1516 1516 1517 1517 1517 1517 1517 1517 1518 1517 1517 1517 1517 1517 1517 1517 1516 1516 1516 1516 1516 1517 1517 1518 1519 1520 1521 1522 1523 1524 1525 1525 1525 1526 1526 1526 1526 1526 1526 1525 1525 1525 1524 1523 1521 1519 1519 1518 1516 1516 1515
1512 1512 1513 1513 1513 1514 1514 1514 1514 1514 1515 1515 1515 1515 1515 1515 1515 1515 1516 1516 1516 1516 1515 1515 1515 1515 1515 1515 1515 1514 1514 1514 1514 1515 1515 1516 1517 1518 1520 1521 1522 1523 1523 1523 1523 1523 1523 1523 1523 1523 1522 1522 1522 1521 1521 1520 1518 1517 1516 1515 1514 1513 1511
1511 1511 1512 1512 1512 1512 1512 1512 1513 1513 1513 1514 1514 1513 1513 1513 1513 1514 1514 1514 1514 1514 1514 1514 1514 1514 1514 1513 1513 1513 1512 1512 1512 1513 1514 1515 1516 1517 1518 1519 1520 1521 1521 1521 1521 1521 1521 1521 1520 1519 1519 1519 1519 1518 1518 1517 1516 1515 1514 1512 1511 1510 1508
1509 1510 1510 1510 1510 1510 1511 1511 1511 1511 1512 1512 1512 1512 1512 1511 1512 1512 1512 1512 1512 1512 1512 1512 1512 1512 1512 1512 1511 1511 1511 1511 1511 1512 1512 1513 1514 1515 1516 1517 1518 1518 1519 1519 1519 1519 1519 1518 1517 1517 1516 1516 1515 1515 1515 1514 1513 1512 1511 1510 1509 1507 1506
1508 1508 1509 1509 1509 1509 1509 1509 1509 1509 1510 1510 1510 1510 1510 1510 1510 1510 1510 1510 1510 1510 1510 1511 1510 1510 1510 1510 1510 1510 1510 1510 1511 1511 1512 1512 1513 1514 1515 1516 1516 1517 1517 1517 1517 1516 1516 1515 1515 1514 1514 1513 1513 1512 1512 1511 1509 1508 1507 1506 1505 1503 1501
1506 1507 1507 1507 1507 1507 1508 1508 1508 1508 1508 1508 1508 1508 1508 1508 1508 1508 1508 1508 1508 1508 1509 1509 1509 1509 1509 1508 1509 1509 1509 1510 1510 1511 1511 1512 1512 1513 1513 1514 1515 1515 1515 1515 1514 1514 1513 1512 1512 1512 1511 1511 1510 1509 1508 1507 1505 1504 1502 1501 1499 1498 1496
1504 1504 1505 1505 1505 1506 1506 1506 1506 1506 1505 1505 1505 1505 1506 1506 1506 1506 1505 1506 1506 1506 1506 1507 1507 1507 1507 1507 1507 1507 1508 1508 1509 1509 1510 1510 1510 1511 1512 1512 1513 1513 1512 1512 1512 1511 1510 1510 1510 1509 1509 1508 1506 1505 1504 1503 1502 1500 1498 1497 1495 1494 1493
1501 1502 1502 1503 1503 1503 1504 1504 1504 1504 1504 1503 1503 1503 1504 1504 1503 1503 1503 1503 1504 1504 1504 1505 1505 1505 1505 1506 1506 1506 1507 1507 1507 1508 1508 1508 1509 1509 1510 1510 1510 1510 1510 1510 1509 1509 1508 1508 1508 1507 1505 1504 1503 1502 1501 1499 1498 1497 1495 1494 1492 1490 1489
1499 1499 1500 1500 1501 1501 1502 1502 1502 1502 1502 1501 1501 1501 1502 1502 1502 1501 1502 1502 1502 1502 1503 1503 1503 1503 1504 1504 1504 1505 1505 1506 1506 1506 1507 1507 1507 1507 1508 1508 1508 1508 1508 1507 1507 1506 1506 1505 1504 1503 1502 1501 1500 1499 1497 1496 1495 1493 1492 1490 1489 1487 1486
1496 1497 1497 1498 1498 1499 1499 1500 1500 1500 1500 1499 1500 1500 1500 1500 1500 1500 1500 1500 1501 1501 1501 1501 1502 1502 1502 1503 1503 1503 1504 1504 1504 1505 1505 1506 1506 1506 1506 1506 1506 1505 1505 1505 1504 1503 1502 1502 1501 1500 1499 1498 1497 1496 1494 1493 1492 1490 1489 1487 1486 1484 1483
Wind_Speed
11 12 12 10 9 9 9 9 9 10 11 10 9 8 6 5 6 6 5 4 4 5 4 4 4 3 3 3 2 3 3 2 5 4 3 4 6 6 8 11 10 6 5 5 3 2 2 2 3 3 4 5 6 6 6 6 6 8 10 10 9 7 6
13 13 11 9 9 9 9 9 8 8 8 9 10 10 7 6 6 6 5 4 4 3 2 2 2 1 1 1 2 3 3 1 3 4 4 5 5 5 6 9 10 8 7 5 4 4 5 4 4 5 4 3 3 4 4 2 1 4 7 9 10 9 7
16 14 12 10 10 10 10 10 10 9 9 8 9 11 11 8 7 7 5 4 3 3 3 3 3 3 4 4 4 3 0 2 3 4 6 6 6 5 6 7 9 9 8 6 6 5 5 5 6 6 5 3 2 1 2 1 1 2 4 6 8 9 10
18 15 13 12 12 11 11 11 11 10 10 10 9 10 13 12 9 7 5 3 3 3 3 3 2 1 2 2 2 1 2 4 4 4 4 5 5 5 6 6 7 8 7 6 6 5 5 5 6 6 5 3 3 4 3 2 2 2 3 5 7 7 7
17 15 13 13 13 13 13 12 12 11 10 10 10 10 12 12 9 6 6 6 8 9 9 9 9 9 9 8 7 5 4 4 4 2 1 2 3 4 4 5 6 6 6 5 4 5 5 4 5 5 5 4 3 3 5 6 4 2 2 5 6 5 5
16 14 13 13 14 15 14 13 13 12 11 10 10 10 10 10 9 9 10 10 10 10 10 10 11 10 10 10 9 8 7 6 6 4 2 2 1 2 3 4 4 5 5 5 5 6 6 7 7 7 7 8 7 4 2 7 7 4 3 3 3 5 5
15 15 13 12 15 15 14 14 14 13 13 12 11 11 10 10 10 10 9 9 9 9 10 9 9 9 9 8 8 8 7 7 7 6 5 5 3 2 2 2 2 3 2 3 3 4 4 5 5 5 5 6 7 5 4 6 7 4 5 5 3 5 7
15 15 14 13 14 16 16 16 15 15 14 14 13 12 11 10 10 9 8 7 7 8 9 8 8 8 7 7 7 7 7 7 6 5 5 5 4 4 3 3 4 3 2 1 1 1 1 2 2 2 2 2 2 3 5 5 5 5 7 8 7 7 7
17 17 17 15 14 15 16 16 16 15 14 14 14 13 13 12 10 10 8 7 6 7 8 8 7 7 7 7 7 7 7 7 6 5 5 5 5 4 4 4 4 4 3 2 2 1 0 1 1 2 2 2 1 4 5 5 5 5 6 6 6 7 7
19 17 17 17 15 14 14 15 14 14 14 14 14 13 13 12 11 11 9 8 7 7 7 7 7 6 7 7 7 7 7 7 7 7 6 6 6 6 5 5 4 4 4 3 3 2 2 2 2 2 2 2 1 2 4 5 5 4 3 2 2 3 4
20 17 17 16 15 13 13 13 12 12 12 12 13 13 12 11 11 10 9 8 8 7 6 6 6 6 6 6 6 7 7 7 7 6 6 6 7 6 6 5 5 5 5 4 3 3 2 1 1 1 1 2 2 1 1 2 2 3 2 2 3 4 3
20 17 17 16 15 14 12 11 11 10 9 9 10 10 10 10 9 9 8 7 6 6 5 4 4 5 5 5 5 5 6 6 6 5 4 5 6 5 5 5 5 5 5 4 4 3 3 2 2 2 2 2 3 3 3 3 1 1 3 4 3 4 5
20 18 18 17 16 14 12 11 11 10 9 8 7 7 7 6 6 6 7 6 5 4 3 3 2 2 3 2 2 2 3 3 3 3 2 2 3 3 2 2 3 4 4 4 5 4 4 3 4 4 4 4 4 5 5 5 4 4 5 7 7 6 6
21 21 21 19 17 15 14 13 12 11 9 8 6 5 5 4 4 4 5 6 6 5 4 3 2 1 1 1 1 1 1 1 1 1 2 2 1 1 1 0 1 2 3 4 4 4 4 4 4 4 5 6 6 7 7 7 7 6 6 7 8 8 8
23 22 22 22 21 19 19 17 15 13 11 10 8 6 5 4 4 4 4 4 4 4 5 4 4 3 3 4 4 4 4 3 3 3 2 3 3 2 2 2 2 1 2 2 3 4 5 5 5 5 5 6 7 8 9 9 10 8 7 6 7 8 8
24 22 23 24 23 23 23 20 18 16 14 12 11 10 9 8 7 7 6 6 6 5 5 4 4 4 4 4 5 5 6 6 6 5 5 4 4 4 4 4 3 2 2 3 3 4 4 4 4 5 5 6 7 8 9 10 11 11 10 9 9 10 10
26 24 25 25 23 24 25 22 20 19 16 15 14 13 13 12 11 10 9 9 9 8 8 8 7 7 6 5 5 5 5 6 6 6 5 6 6 6 5 5 5 4 3 4 4 5 4 4 4 5 5 6 7 8 8 9 10 12 12 12 11 11 12
27 27 25 23 22 26 27 24 21 19 16 15 15 15 15 14 13 12 12 12 11 11 10 11 11 11 10 9 8 8 7 7 7 6 6 6 7 7 7 6 6 5 4 4 5 5 6 6 6 6 7 7 7 8 8 9 10 11 12 14 13 13 13
27 27 25 22 22 24 25 23 20 19 17 17 17 17 16 15 14 14 13 14 14 13 13 13 14 14 13 13 12 12 12 11 11 10 9 9 9 9 8 8 7 7 6 5 5 6 7 8 8 9 9 9 9 9 9 9 10 11 11 13 14 15 15
25 24 23 21 20 20 20 19 18 19 19 19 19 19 19 18 16 15 15 15 15 15 15 15 15 16 17 16 16 16 16 15 14 14 13 12 11 11 11 10 10 9 8 7 7 7 8 9 10 11 11 11 11 11 11 11 11 11 12 13 14 16 17
20 21 21 20 20 20 19 18 19 20 21 21 21 21 21 19 16 16 16 18 19 19 19 18 18 18 19 19 19 19 19 19 18 17 16 16 15 14 14 13 12 10 9 8 8 9 11 12 12 12 12 12 12 12 12 13 13 13 14 15 16 18 19
17 18 19 19 18 17 15 15 16 17 18 19 19 17 16 14 13 14 16 18 19 20 21 21 21 21 22 21 21 21 20 20 20 19 18 18 18 18 17 17 16 14 11 10 10 10 12 13 13 13 13 13 13 13 13 14 14 14 15 17 18 20 21
12 12 14 14 13 12 12 13 12 11 11 11 11 11 11 11 12 12 13 14 15 17 18 20 21 21 22 23 24 23 22 22 22 22 21 20 21 21 21 20 20 17 14 13 13 12 12 14 14 14 14 14 14 14 15 15 15 16 17 19 20 21 22
9 8 9 9 8 8 8 8 7 7 7 7 7 8 9 9 9 9 9 10 11 13 15 16 17 18 18 20 22 24 24 24 24 24 24 24 23 23 24 24 23 21 18 15 15 14 13 13 14 14 15 15 16 16 16 16 17 18 19 20 21 21 22
9 8 8 7 7 7 7 7 7 7 8 8 8 8 8 8 8 8 9 9 9 9 11 12 13 14 14 15 17 19 21 22 23 24 26 27 26 26 26 26 26 24 21 17 16 15 14 13 14 16 16 17 18 18 18 18 19 20 21 22 23 24 25
9 9 8 8 8 8 8 8 8 8 9 9 9 10 10 9 9 9 9 10 9 9 10 11 12 13 13 14 15 17 18 19 20 21 23 26 27 27 27 28 27 24 20 18 17 16 14 13 14 17 19 20 21 20 21 21 21 22 23 24 25 25 26
9 9 9 9 9 9 9 9 9 9 10 10 10 11 11 11 11 11 11 11 11 11 12 12 13 13 14 14 14 15 16 17 18 19 21 23 25 26 27 28 26 22 19 18 17 16 13 12 15 18 20 21 21 21 21 22 22 23 25 26 27 27 27
10 10 9 10 11 11 11 12 13 13 14 14 13 13 13 13 12 12 12 11 11 12 14 14 14 14 15 15 15 16 15 16 17 18 19 21 23 25 27 26 23 20 19 18 16 14 13 15 18 21 21 21 21 21 21 22 23 25 26 28 29 30 30
11 11 11 12 12 12 12 11 11 12 12 13 13 14 14 14 14 13 12 12 12 13 15 16 16 15 15 16 17 16 15 15 14 14 15 17 21 25 26 25 22 20 18 16 15 14 16 19 21 22 22 21 21 22 22 23 24 26 28 29 31 32 33
11 12 11 11 11 10 9 8 8 7 7 8 9 10 12 13 13 13 12 13 14 15 17 17 17 16 15 15 15 15 14 12 11 11 12 16 20 23 23 22 20 18 16 15 16 17 20 21 21 21 21 21 22 22 22 24 26 28 29 30 31 33 34
11 11 11 11 11 10 8 8 8 9 9 8 8 8 10 12 13 14 13 14 15 16 16 17 17 16 15 15 14 13 11 10 10 12 14 17 20 21 20 18 17 17 17 18 19 20 21 21 20 20 20 21 22 23 24 26 28 29 30 31 32 34 36
11 12 13 13 12 11 11 12 13 13 12 11 10 10 10 11 13 15 15 15 16 16 17 17 17 17 16 16 15 12 10 9 10 14 17 18 20 20 19 18 18 19 19 20 21 21 20 20 20 20 21 21 23 24 26 28 29 30 32 33 34 35 35
12 13 13 13 13 13 14 15 16 15 14 14 15 15 14 13 13 15 16 17 17 17 18 18 18 17 16 16 15 11 9 10 11 14 17 18 20 20 20 20 20 20 20 20 20 20 20 21 21 21 22 23 25 27 29 30 31 32 34 34 34 33 31
14 14 15 15 16 16 16 16 16 16 16 17 18 19 19 18 15 16 17 17 17 17 17 17 17 16 15 15 13 11 10 11 12 14 16 18 20 20 19 19 19 19 19 19 20 21 22 22 23 24 26 27 29 30 31 31 32 32 32 32 30 29 28
16 17 17 17 17 17 16 16 16 17 19 20 20 21 22 21 18 16 16 16 15 16 16 15 15 14 13 12 11 10 11 13 14 16 17 17 18 17 17 17 18 19 19 20 21 22 23 24 25 27 28 28 28 29 29 30 30 29 29 28 28 27 26
17 17 17 17 18 18 17 16 16 17 20 21 22 23 24 21 18 16 15 14 14 15 15 14 13 12 11 11 10 9 10 13 15 17 17 16 16 16 17 18 19 20 20 21 22 23 25 25 26 26 26 25 26 26 26 26 26 26 26 26 26 27 27
19 19 18 18 19 19 19 19 19 20 22 23 23 24 24 20 17 16 15 13 13 13 14 13 12 12 11 10 10 10 11 13 15 16 16 16 16 17 18 19 19 20 21 22 23 24 24 24 23 23 23 23 23 23 23 23 24 24 24 25 27 28 28
Wind_Direction
186 166 158 154 147 145 143 148 160 175 192 205 210 209 204 175 148 146 142 135 140 144 145 154 153 130 113 109 65 29 30 156 184 193 204 205 208 214 214 210 208 208 210 202 187 196 224 230 208 211 231 233 237 245 257 276 264 245 252 255 253 253 259
185 168 159 154 147 145 139 133 134 143 164 190 203 200 187 168 157 156 151 141 137 136 148 182 183 174 218 270 312 338 14 92 160 162 167 173 178 187 192 197 199 199 207 206 197 213 218 206 191 193 207 216 230 238 226 230 262 255 255 249 246 245 245
180 169 162 156 151 145 135 127 125 124 127 144 177 192 187 173 165 168 171 173 180 192 214 241 255 276 291 299 309 312 17 111 123 131 146 154 160 170 171 178 191 195 199 200 202 217 219 207 197 192 186 152 112 172 197 162 48 341 308 288 273 261 251
179 172 165 157 154 146 136 130 129 127 126 125 140 172 186 187 185 186 190 193 171 145 141 145 137 92 51 41 19 6 144 142 136 132 140 147 152 159 159 167 183 190 196 201 203 208 206 199 199 198 191 164 105 81 71 36 338 322 313 295 281 274 264
182 177 166 157 153 147 143 140 134 130 129 127 129 145 169 184 188 171 148 133 119 111 109 108 102 98 96 91 89 94 106 117 120 119 145 175 178 176 168 170 181 190 202 214 220 225 229 227 226 227 223 213 180 104 69 57 46 12 320 287 262 249 259
192 184 169 158 153 149 146 141 133 129 128 130 132 133 141 152 149 135 126 123 119 112 109 108 103 99 99 99 102 106 110 112 113 113 116 129 172 203 191 184 193 208 225 243 256 266 276 276 267 264 258 251 246 234 137 86 75 56 25 333 274 225 229
207 198 181 164 156 153 147 137 130 125 123 124 129 133 134 135 133 130 126 123 121 115 109 109 106 101 99 100 103 108 113 115 115 119 118 114 117 124 125 133 166 189 210 248 267 279 292 290 283 284 272 263 265 246 193 123 105 92 82 78 109 171 198
217 211 193 176 162 156 149 142 138 132 126 123 123 126 130 134 133 131 129 123 117 113 114 116 112 106 100 96 96 102 106 104 105 109 101 99 104 104 95 96 119 132 129 134 164 265 286 299 293 298 309 294 266 193 167 144 139 121 94 93 107 127 150
217 215 203 191 175 164 156 149 146 141 135 128 125 123 124 126 127 126 125 121 109 102 106 108 106 101 95 92 91 93 96 97 100 97 88 88 88 83 77 78 98 106 94 90 84 81 66 7 0 344 356 9 85 143 142 142 152 139 114 112 111 111 123
213 214 209 201 187 174 166 159 154 152 147 138 131 128 125 123 123 121 117 112 104 94 88 90 94 93 89 88 87 85 89 93 93 90 84 84 84 84 81 76 81 81 70 60 43 51 72 50 25 8 2 4 30 118 129 135 158 176 171 164 151 124 120
210 213 215 211 198 185 178 174 171 165 158 151 142 137 132 128 125 123 120 114 106 96 85 80 83 85 83 83 84 86 89 87 83 82 76 75 79 80 78 75 75 74 72 59 30 19 36 54 45 5 347 340 343 345 53 93 143 195 229 240 238 233 213
205 208 217 218 206 194 190 189 189 185 178 168 156 147 142 137 132 127 123 117 108 100 92 78 68 70 76 74 70 73 84 85 80 80 75 70 73 73 69 66 65 68 69 63 50 33 11 357 353 2 2 347 346 347 355 10 27 323 311 311 297 276 258
204 205 212 216 210 200 199 200 201 207 205 198 182 165 157 149 145 143 140 140 136 124 115 98 63 45 54 52 47 56 82 99 97 97 102 87 74 77 71 51 43 44 42 38 40 36 19 358 350 358 1 357 357 3 10 10 14 16 351 340 344 338 319
204 203 207 212 210 202 203 206 208 214 215 218 219 204 186 170 166 174 175 174 172 172 176 173 180 222 286 301 301 306 290 184 170 183 173 168 157 160 192 178 27 8 2 4 9 8 1 354 353 357 355 348 345 347 351 352 353 7 11 353 348 348 342
207 206 209 212 210 206 205 204 206 211 213 216 220 221 221 212 203 205 210 216 212 204 204 200 203 220 235 248 249 252 256 251 251 256 234 211 227 257 265 239 211 236 304 309 331 344 341 340 341 342 341 333 330 331 331 331 330 335 349 352 345 340 339
207 208 212 213 211 208 206 203 205 210 211 210 212 217 226 231 231 228 229 238 246 250 245 236 236 243 247 247 243 243 249 255 257 259 257 248 247 264 283 283 265 262 299 297 312 331 330 327 323 321 321 317 315 316 316 314 313 316 325 338 342 335 332
204 207 212 214 210 207 206 207 209 212 214 214 217 221 226 233 240 246 251 250 250 256 260 263 265 262 261 257 249 246 250 260 263 262 265 268 265 263 268 275 280 290 314 318 324 335 334 324 309 299 296 297 301 305 305 305 308 311 316 324 332 332 327
203 205 207 206 206 207 208 208 208 213 220 225 230 233 234 240 247 257 264 262 257 259 264 269 272 271 272 267 258 255 257 261 269 272 276 282 282 277 271 267 266 272 291 308 319 331 333 325 315 304 298 297 299 302 302 303 305 308 310 315 322 325 322
207 211 212 210 213 214 210 207 208 214 224 232 235 237 240 247 254 259 262 259 257 258 261 267 270 272 273 270 265 263 260 259 264 267 270 278 285 288 288 286 279 276 284 298 307 315 318 317 315 312 308 305 304 303 301 301 302 305 307 312 316 318 318
212 219 221 219 224 227 222 218 218 219 222 226 229 233 241 249 255 258 258 255 254 253 253 259 265 270 271 270 269 267 264 263 264 265 265 267 270 276 283 287 288 288 292 297 301 304 308 312 314 311 307 306 307 307 306 306 306 307 308 310 312 313 314
218 224 225 226 234 240 238 236 234 233 234 234 236 240 246 251 256 258 257 256 259 259 256 254 256 262 267 268 268 267 266 266 267 267 265 262 261 262 267 274 279 282 286 287 288 298 307 309 308 306 305 307 308 309 308 307 307 307 307 309 310 310 310
230 231 232 235 241 245 244 241 241 242 242 243 245 248 251 255 258 258 257 258 262 264 262 260 258 261 265 268 267 266 265 266 267 266 262 259 260 261 264 271 277 277 278 276 275 285 300 304 301 299 302 306 308 307 306 304 303 303 304 306 306 306 306
225 226 226 230 235 238 239 240 240 240 239 241 245 248 252 255 255 258 260 260 261 262 262 262 262 263 263 264 265 266 266 266 267 266 261 255 255 259 264 269 272 271 267 266 267 274 288 297 298 296 300 307 310 308 305 301 298 299 302 305 306 306 306
201 205 207 211 215 214 214 217 220 221 223 224 229 235 242 247 250 255 259 262 265 264 262 261 261 260 258 258 261 263 264 265 266 267 265 258 254 256 260 262 264 262 259 258 260 265 277 290 295 294 299 308 312 309 304 298 294 299 306 309 309 310 311
183 183 185 187 185 183 184 189 194 203 210 213 218 228 237 246 253 255 257 264 270 271 268 265 262 261 258 258 261 262 264 265 266 268 266 261 257 256 255 255 256 255 254 253 254 258 270 285 292 295 301 308 310 308 302 296 295 302 309 313 312 312 313
182 186 190 191 193 196 199 204 207 212 217 222 229 238 246 254 259 262 264 270 278 283 280 271 266 266 265 264 265 267 267 267 267 267 264 261 259 256 251 250 250 248 248 249 252 259 269 281 291 297 302 305 304 301 296 293 297 304 309 311 310 310 312
197 202 203 202 205 207 208 215 223 227 231 235 239 245 251 255 259 266 272 276 282 288 286 279 274 272 270 270 269 270 270 269 267 266 263 261 258 253 248 247 245 244 244 248 256 264 270 279 290 296 297 296 294 292 290 291 297 302 304 306 307 308 309
207 212 215 217 220 222 226 231 235 238 241 244 246 249 252 256 260 266 273 277 280 282 282 281 281 280 278 277 275 274 274 272 268 265 263 260 252 243 240 239 239 241 247 254 264 269 273 283 292 293 291 289 287 288 290 294 297 299 300 303 304 305 305
218 222 225 227 231 236 237 233 229 230 233 237 241 245 250 255 258 261 266 271 272 274 276 280 283 285 284 281 279 277 275 273 271 269 266 258 248 239 234 235 239 246 253 261 264 266 274 284 288 287 287 288 289 290 293 295 295 296 297 299 300 301 302
230 232 236 241 248 251 246 236 232 234 236 235 238 242 244 248 252 255 260 266 268 270 274 279 285 288 288 285 282 279 277 278 280 278 266 251 241 235 232 235 242 248 253 255 257 264 274 279 280 281 284 287 289 291 292 291 290 290 292 293 295 297 298
234 238 249 260 269 273 273 273 275 276 271 263 258 254 249 245 246 250 256 262 267 270 272 277 284 290 292 292 289 286 284 286 283 270 255 240 230 229 234 239 243 244 247 252 258 265 271 273 276 281 285 286 286 285 284 283 282 283 285 287 290 292 293
235 243 254 262 269 276 283 286 286 285 281 276 277 279 275 262 252 249 252 256 263 269 272 275 280 286 291 294 294 291 285 278 266 251 242 234 231 235 240 241 240 243 251 259 264 268 272 275 278 281 282 281 280 279 279 280 281 284 286 288 290 291 292
243 246 250 256 262 270 277 279 280 282 284 287 290 293 295 288 270 256 252 254 259 266 270 272 275 277 281 286 289 284 273 265 258 249 245 243 243 243 243 242 244 251 258 262 267 271 274 275 276 278 279 280 280 280 281 284 287 290 292 293 294 294 295
258 258 258 260 265 269 272 274 278 283 287 290 293 295 299 299 286 266 258 257 262 267 267 265 265 266 269 275 277 271 263 260 257 253 249 245 242 242 245 252 256 260 261 261 263 266 268 271 275 278 279 279 279 281 284 287 290 292 293 294 295 295 295
263 263 262 263 266 268 270 273 276 280 283 285 288 292 296 297 289 274 267 267 269 271 266 260 258 258 259 262 261 256 253 253 252 252 249 245 245 249 255 263 265 263 259 258 260 264 269 274 276 277 277 278 280 284 287 289 290 291 292 294 295 296 296
257 256 257 260 262 264 266 269 272 275 279 281 285 287 289 292 289 280 276 278 278 273 267 261 257 253 249 247 247 248 252 254 254 254 252 251 254 257 259 261 262 260 260 262 267 272 275 276 276 277 279 282 285 287 288 290 291 294 296 297 298 298 298
256 256 255 255 257 260 264 268 272 275 277 278 279 280 283 287 288 284 283 285 282 275 268 262 255 247 243 242 244 248 256 261 260 258 257 256 255 255 256 258 261 264 268 271 273 275 276 278 280 283 285 287 288 290 292 294 296 296 297 297 299 300 300